Temperature
22 20 20 21 21 23 22 22 21 22 23 22 21 21 20 19 19 18 18 18 18 19 19 18 18 17 17 17 17 17 17 17 17 17 17 17 17 17 17 16 16 16 16 16
21 20 21 22 22 22 22 21 21 22 23 22 21 20 20 19 19 19 18 18 18 18 18 18 18 17 17 17 17 17 17 17 17 17 17 17 17 17 17 16 16 16 16 16
21 21 23 23 23 23 23 22 22 22 22 21 21 20 20 19 19 19 18 18 18 18 18 18 17 17 17 17 17 17 17 17 17 17 17 17 17 17 16 16 16 16 16 15
21 21 23 23 23 23 22 23 23 22 21 19 20 19 20 19 18 18 18 18 18 18 18 18 17 17 17 17 17 17 17 17 17 17 17 17 17 17 17 16 16 16 16 15
21 22 23 23 23 24 23 22 21 21 20 19 18 19 18 18 19 18 17 18 18 18 18 18 18 17 17 17 17 17 17 16 17 17 17 17 17 17 17 16 16 16 15 15
22 23 24 23 24 24 23 22 20 17 17 19 19 19 19 18 19 19 18 18 18 18 18 18 17 17 17 17 17 17 17 16 16 16 16 17 17 17 16 16 16 16 16 15
22 22 23 24 24 23 22 20 19 20 18 19 18 18 18 19 19 19 18 18 18 18 18 18 17 17 17 17 17 16 16 16 16 16 16 16 17 17 16 16 16 16 16 16
21 21 23 23 23 22 21 20 20 20 19 18 18 18 18 19 19 19 19 18 18 18 18 18 17 17 17 17 17 17 17 16 17 17 16 16 17 16 16 16 16 16 16 16
20 20 23 24 24 23 21 20 19 18 18 18 18 18 18 19 18 18 18 17 18 18 18 18 18 18 17 17 17 17 17 17 17 17 16 16 16 16 16 16 16 16 16 16
20 21 22 23 24 23 22 19 17 17 19 19 20 19 19 20 19 18 17 17 17 18 18 18 18 18 18 17 17 17 17 17 17 17 17 16 16 16 16 16 16 16 16 16
20 21 21 22 23 23 21 20 18 16 17 18 19 19 19 19 19 18 17 18 18 18 19 19 18 18 18 17 17 17 17 17 17 17 17 16 16 16 16 16 16 16 16 16
19 18 19 20 21 22 21 20 17 19 18 17 18 19 20 18 18 18 18 18 19 19 19 19 19 18 18 18 17 17 17 17 17 17 17 17 16 16 16 16 16 16 16 16
19 18 19 20 20 20 20 19 18 16 16 15 17 19 19 17 17 18 18 18 19 19 19 19 19 18 18 18 18 17 17 17 17 17 17 17 16 16 16 16 16 16 16 16
18 17 18 20 19 19 20 19 18 17 17 16 17 19 19 18 18 17 18 18 19 19 19 19 19 19 18 18 18 18 18 17 17 17 17 17 17 16 16 16 16 16 16 16
17 17 18 18 19 19 20 20 19 18 18 18 19 18 19 18 17 17 18 18 18 18 19 19 19 19 18 18 18 18 18 17 17 17 17 16 16 16 16 16 16 16 16 16
16 17 18 18 19 19 20 20 20 19 19 19 19 19 18 17 17 17 17 17 17 18 18 19 19 18 18 18 18 18 18 18 17 17 17 17 16 16 16 16 16 16 16 16
15 16 17 17 18 19 19 19 19 19 19 19 19 19 17 16 16 16 16 16 17 17 18 18 18 18 18 18 18 18 17 17 17 17 16 16 16 16 16 16 16 16 16 16
14 14 14 15 17 17 18 18 19 19 19 18 18 17 16 15 15 15 16 16 16 17 17 17 18 18 18 18 17 17 17 16 16 16 16 16 16 15 15 15 15 15 15 15
13 13 13 14 15 16 18 18 17 18 17 17 16 16 15 14 14 13 14 15 16 16 16 16 17 17 17 17 16 16 16 16 15 15 15 15 15 15 15 15 15 15 14 14
12 13 13 13 15 16 17 17 17 17 17 16 16 15 14 15 15 14 13 14 15 15 15 15 16 16 15 15 16 16 15 15 15 14 14 14 14 14 14 14 14 13 13 13
14 13 13 14 14 15 16 16 16 17 17 15 15 15 14 14 14 13 13 13 14 14 14 15 15 15 15 15 15 15 15 14 14 14 14 13 13 13 13 13 13 12 12 12
13 13 13 13 14 14 15 15 15 15 14 14 14 15 14 13 13 13 13 13 13 13 13 14 14 14 14 14 14 14 13 13 13 13 13 13 12 12 12 12 11 11 11 11
12 12 12 12 13 13 14 14 14 14 14 14 14 14 14 12 12 12 12 12 13 13 13 13 13 13 13 13 13 13 12 12 12 12 12 12 11 11 11 11 11 11 10 10
12 12 12 12 13 13 14 14 14 14 14 14 14 14 14 12 12 12 12 12 12 12 12 13 13 12 12 12 12 12 12 11 11 11 11 11 11 11 10 10 10 10 10 10
12 12 12 12 12 13 13 13 13 13 13 13 13 13 13 12 12 12 11 11 11 12 12 12 12 12 11 11 11 11 11 11 11 11 10 10 10 10 10 10 9 9 9 9
11 12 12 13 13 12 13 13 13 13 13 13 12 12 12 12 12 11 11 11 11 11 11 11 11 11 11 11 10 10 10 10 10 10 10 10 10 9 9 9 9 8 8 8
Wind_Speed
3 3 4 6 7 6 5 6 10 11 6 2 5 5 2 3 4 5 4 5 7 7 5 6 7 8 8 9 9 9 9 9 8 6 6 5 4 3 3 3 6 7 8 8
2 6 9 7 6 6 5 7 8 9 4 1 4 5 1 2 4 4 5 6 7 5 5 7 8 8 10 10 10 10 10 10 9 7 5 4 5 4 3 3 4 6 8 8
9 7 4 5 4 5 6 6 7 7 4 4 4 6 2 1 1 2 2 4 5 7 8 8 9 9 10 10 10 10 10 9 9 8 7 6 5 4 3 3 2 3 6 7
7 8 6 6 6 5 7 6 6 3 2 4 3 4 5 2 3 3 3 3 4 5 6 7 8 9 10 9 8 9 9 9 9 10 10 11 7 5 5 4 3 3 4 6
8 5 6 7 7 7 6 1 2 2 2 2 3 1 7 2 3 5 5 5 5 5 6 8 8 9 9 8 8 9 9 9 8 9 10 10 7 4 4 4 5 3 2 3
8 5 6 7 4 5 3 5 5 5 5 3 2 0 7 4 5 4 4 4 5 5 5 6 6 7 7 8 8 9 10 9 9 9 9 9 10 8 7 6 5 4 2 2
7 6 6 5 3 2 4 5 5 6 5 5 2 3 9 7 5 5 5 5 5 6 7 7 7 8 8 9 9 9 10 9 9 10 9 9 9 9 9 7 7 6 4 3
5 8 5 6 9 7 6 9 7 5 5 6 3 5 8 5 3 3 4 4 4 6 6 8 8 9 9 10 10 10 10 9 9 10 8 8 8 7 6 6 6 7 5 5
8 7 5 4 5 9 7 5 6 7 2 2 6 7 9 2 2 3 3 4 5 6 7 7 8 9 9 9 9 10 10 9 9 9 8 8 7 7 7 6 6 5 5 4
10 6 6 3 3 1 5 9 6 6 4 4 6 6 5 6 6 5 5 5 5 5 6 7 7 8 8 8 8 8 9 9 8 8 8 7 7 7 7 6 7 6 6 5
7 7 5 1 5 6 4 5 5 5 5 6 4 8 7 8 7 7 7 6 6 7 6 7 7 7 7 7 8 8 8 7 7 8 7 7 7 6 6 6 7 7 6 6
5 5 4 6 4 2 6 8 8 6 5 5 4 8 5 5 6 6 6 5 5 6 6 7 8 8 7 8 8 8 8 7 7 7 7 7 6 6 6 6 6 6 6 6
5 5 1 6 5 2 1 3 5 6 5 6 5 8 3 1 3 4 5 5 6 6 6 6 7 8 8 8 8 8 8 8 7 7 7 6 6 6 6 6 5 5 5 5
5 4 6 8 7 4 3 3 5 6 5 6 8 8 6 3 4 4 5 6 6 6 7 6 6 6 7 8 8 8 7 7 7 7 7 6 6 6 6 5 5 5 5 5
5 3 4 6 6 5 6 7 7 8 9 9 9 8 9 7 6 5 6 6 7 6 7 7 6 6 6 7 7 7 7 7 7 7 6 6 5 5 4 4 4 4 4 4
3 4 2 4 6 6 6 8 9 9 6 7 6 8 6 2 4 5 6 8 8 7 7 7 6 6 6 7 7 7 7 8 8 8 7 5 5 4 4 3 3 3 3 2
3 5 4 4 5 2 7 9 10 7 6 8 10 9 4 3 5 6 6 8 8 7 7 7 6 5 5 5 6 7 6 7 7 7 6 5 5 5 4 4 3 3 2 3
6 5 4 3 1 7 9 3 4 6 6 7 6 5 6 6 6 5 4 7 8 7 7 7 6 6 5 6 6 7 8 8 7 7 6 6 6 5 5 5 4 4 4 5
4 6 4 4 5 7 5 3 3 4 5 4 6 6 8 11 8 6 5 7 8 8 7 7 7 8 8 8 8 10 10 9 8 7 7 6 6 6 6 6 6 5 6 7
3 3 4 4 4 7 7 3 1 2 5 4 6 9 11 8 5 4 5 9 11 10 10 9 10 11 10 8 9 12 11 10 8 8 7 7 7 8 8 7 7 6 7 7
2 1 3 5 6 7 5 2 1 5 6 2 5 7 7 4 5 10 11 10 11 11 11 11 13 12 9 9 12 14 12 10 8 8 9 9 9 9 8 8 7 7 8 8
3 2 3 3 5 7 4 2 3 4 2 1 4 6 9 12 15 15 14 12 13 13 12 12 13 12 10 10 14 15 12 8 9 10 11 10 9 8 8 9 8 7 8 9
5 5 4 6 6 4 3 4 5 2 1 1 4 8 14 16 15 15 14 12 12 13 12 11 13 13 11 10 12 14 8 8 10 11 10 9 9 8 7 8 8 6 6 6
3 2 2 4 5 5 6 5 4 2 3 4 8 11 14 17 17 15 13 11 12 12 12 11 13 14 11 10 10 9 8 8 11 11 9 8 9 8 8 7 6 5 5 5
4 3 3 4 5 5 4 3 2 2 6 10 11 12 14 17 17 16 14 12 11 11 10 11 12 12 10 9 9 8 7 9 11 10 8 8 8 8 8 8 7 6 5 3
2 3 3 4 4 2 3 3 1 6 9 12 14 14 12 14 16 16 14 12 12 11 11 11 11 11 10 9 9 7 7 8 10 8 7 6 6 6 7 7 8 13 11 12
Wind_Direction
117 93 224 223 207 226 258 269 282 283 296 291 262 265 266 164 167 182 185 191 205 209 186 170 171 175 174 169 170 175 170 160 154 147 147 142 145 141 125 129 133 137 139 138
43 254 235 217 223 236 250 281 285 296 339 336 298 296 276 176 200 200 200 201 200 187 162 164 167 172 180 177 174 174 173 168 167 166 156 141 134 127 117 111 122 138 140 141
202 232 203 206 255 276 275 238 260 275 320 17 1 322 302 313 252 210 208 201 191 189 178 173 177 177 175 177 177 178 174 167 162 153 131 116 97 89 99 117 123 131 140 141
231 247 231 248 256 226 277 254 243 269 327 312 28 297 296 298 305 256 231 211 201 184 175 172 173 174 178 177 172 165 162 157 158 153 151 149 151 156 171 161 149 125 131 138
229 216 198 223 233 192 230 343 53 56 112 351 6 275 292 320 279 257 239 220 207 189 177 176 178 177 172 165 163 158 153 152 157 159 159 154 147 146 134 131 134 128 116 133
241 231 211 217 222 190 174 64 49 53 63 330 302 283 284 251 235 247 232 218 197 185 174 168 164 154 151 150 152 154 154 154 155 156 158 157 154 149 145 148 153 152 142 139
279 263 234 205 264 307 129 93 15 349 357 265 269 249 254 253 232 217 212 211 195 180 169 164 159 157 157 158 158 156 157 157 157 156 160 162 161 160 165 165 168 166 168 181
230 282 246 197 193 193 177 149 163 215 241 281 307 253 258 256 235 200 188 186 174 170 169 168 168 165 166 165 161 159 161 160 156 159 164 161 159 163 170 172 172 180 187 191
195 252 283 227 193 155 150 180 162 138 158 282 286 284 300 226 207 191 179 171 177 177 176 169 167 169 167 168 169 167 164 160 162 164 161 161 164 169 176 177 178 185 192 190
170 235 281 280 107 62 154 144 110 129 157 258 290 282 263 256 230 204 191 191 185 173 171 167 169 169 166 166 166 162 163 165 163 163 168 173 174 181 179 175 187 195 199 192
160 195 279 11 187 192 127 121 121 126 156 168 250 271 230 224 212 199 199 192 182 180 179 175 171 166 157 152 154 157 158 155 160 166 170 170 175 179 175 184 199 200 198 195
154 145 242 257 261 219 179 174 153 161 209 182 190 263 271 216 201 185 186 181 174 176 173 168 163 157 157 159 159 163 164 164 169 170 171 178 177 175 180 194 203 199 201 203
133 121 67 341 341 357 147 167 158 134 126 159 181 260 305 127 166 172 170 169 165 160 158 155 157 164 169 169 168 169 171 173 172 168 171 176 179 181 188 195 196 196 202 208
118 121 167 198 221 226 244 202 161 139 158 196 217 246 281 251 206 185 168 158 154 156 155 156 162 168 170 171 171 172 174 172 168 165 171 180 186 188 191 189 190 196 198 203
101 148 213 237 242 223 228 230 197 197 194 194 226 228 251 235 207 185 162 149 143 148 153 159 166 169 164 164 167 169 169 165 166 165 172 184 179 173 173 178 187 189 191 203
86 157 194 269 254 239 247 244 219 220 211 217 232 250 247 198 141 142 151 154 150 151 153 152 152 154 160 168 168 165 164 162 159 163 169 163 157 161 164 168 167 164 164 162
166 158 166 248 271 287 249 226 207 206 206 193 213 228 179 155 155 159 156 153 150 144 140 140 142 145 148 150 151 153 148 140 142 145 140 137 140 137 129 127 120 120 116 112
162 157 169 213 214 229 240 239 208 203 220 211 212 200 169 153 122 95 114 135 131 127 126 126 124 118 112 115 119 117 114 118 120 120 117 117 118 111 105 102 96 91 92 95
166 157 158 169 219 266 279 248 188 191 241 213 192 162 136 129 101 67 59 91 104 106 104 103 102 99 100 104 108 106 102 103 106 106 103 100 103 101 91 85 85 88 92 88
78 123 152 171 200 236 248 255 212 130 254 229 183 165 156 146 141 142 101 95 94 90 91 93 92 92 92 95 103 101 98 96 94 94 92 88 91 94 92 88 86 86 89 88
1 40 185 202 224 256 270 307 95 194 241 217 173 161 157 149 133 125 113 99 95 93 92 92 89 86 86 92 96 93 90 87 87 87 85 82 84 89 90 85 80 85 87 84
224 225 217 188 213 251 328 16 211 247 314 155 137 130 121 116 117 117 112 107 103 97 90 90 92 86 77 84 95 92 84 81 84 84 81 77 74 80 87 86 80 81 89 88
219 208 210 208 228 264 290 265 272 257 240 179 142 131 128 125 122 117 113 110 105 102 97 95 96 90 76 71 88 95 88 87 85 82 78 76 74 72 77 85 87 82 81 91
264 197 215 264 274 284 291 288 288 235 181 146 138 132 128 125 124 120 115 110 107 105 103 101 98 92 82 75 80 88 93 92 90 85 79 77 78 74 66 66 70 81 83 93
255 213 227 258 279 300 307 313 329 111 124 124 123 122 126 127 126 123 119 115 110 104 99 98 98 97 91 83 77 76 84 91 89 83 79 76 76 80 74 66 56 63 60 82
253 215 214 246 268 256 291 322 79 120 123 124 121 115 114 122 123 120 118 115 113 108 103 99 96 95 90 84 77 68 76 92 95 89 82 82 84 85 91 92 74 54 62 66
Height
1489 1495 1499 1497 1495 1495 1496 1499 1500 1489 1479 1481 1481 1480 1477 1476 1477 1478 1479 1480 1481 1482 1485 1487 1489 1492 1496 1499 1502 1506 1511 1516 1521 1526 1530 1534 1538 1541 1543 1546 1547 1549 1550 1552
1494 1496 1489 1488 1489 1492 1494 1499 1496 1485 1478 1480 1482 1481 1477 1476 1476 1476 1477 1478 1479 1481 1483 1485 1487 1489 1491 1495 1499 1504 1509 1514 1519 1524 1529 1533 1537 1540 1542 1544 1546 1548 1549 1551
1493 1488 1483 1486 1488 1491 1491 1494 1492 1489 1482 1481 1485 1485 1480 1477 1476 1476 1476 1476 1477 1479 1481 1483 1485 1487 1489 1493 1497 1501 1506 1512 1518 1523 1527 1531 1535 1538 1541 1544 1546 1547 1549 1550
1488 1482 1482 1484 1486 1486 1493 1482 1483 1484 1491 1497 1494 1502 1484 1479 1478 1476 1476 1475 1476 1478 1479 1481 1483 1485 1488 1491 1496 1501 1506 1511 1517 1521 1525 1529 1533 1536 1539 1543 1545 1546 1548 1549
1484 1478 1479 1482 1480 1479 1482 1479 1482 1486 1492 1500 1498 1502 1493 1481 1480 1476 1474 1474 1475 1476 1478 1480 1482 1484 1488 1491 1495 1500 1505 1509 1515 1520 1524 1528 1532 1536 1539 1542 1544 1546 1547 1549
1477 1473 1473 1473 1471 1473 1475 1481 1487 1495 1502 1510 1500 1503 1497 1484 1476 1473 1472 1472 1473 1475 1477 1479 1481 1484 1487 1491 1494 1499 1504 1509 1513 1518 1523 1527 1531 1535 1538 1541 1543 1545 1547 1548
1480 1473 1469 1468 1473 1474 1477 1494 1511 1511 1518 1513 1501 1502 1495 1473 1470 1469 1470 1471 1472 1473 1475 1478 1480 1483 1486 1490 1493 1498 1502 1507 1512 1517 1521 1526 1530 1534 1537 1540 1542 1544 1546 1548
1489 1486 1468 1464 1469 1475 1479 1488 1509 1517 1519 1511 1501 1501 1482 1468 1467 1467 1467 1469 1471 1472 1474 1477 1479 1482 1486 1489 1493 1497 1501 1506 1510 1515 1520 1525 1529 1533 1536 1539 1542 1544 1546 1547
1487 1484 1464 1460 1460 1466 1478 1485 1485 1503 1508 1513 1504 1493 1476 1466 1466 1466 1467 1468 1469 1471 1473 1476 1478 1482 1485 1489 1492 1496 1501 1505 1510 1515 1519 1524 1528 1532 1535 1538 1541 1543 1545 1547
1472 1479 1466 1460 1460 1463 1467 1477 1493 1503 1513 1515 1504 1496 1487 1469 1466 1466 1466 1467 1468 1470 1472 1475 1477 1481 1484 1488 1492 1496 1500 1505 1509 1514 1518 1523 1527 1530 1534 1537 1539 1542 1544 1545
1466 1476 1472 1466 1466 1469 1472 1478 1486 1499 1501 1511 1512 1497 1466 1463 1461 1463 1464 1465 1467 1469 1471 1474 1478 1481 1484 1488 1492 1496 1500 1504 1508 1513 1517 1521 1525 1529 1532 1535 1537 1540 1542 1544
1465 1475 1481 1472 1462 1460 1463 1471 1482 1492 1497 1502 1504 1492 1456 1457 1457 1459 1461 1463 1465 1468 1471 1474 1477 1481 1484 1488 1492 1496 1500 1504 1508 1512 1516 1520 1523 1527 1530 1533 1535 1538 1540 1542
1464 1476 1486 1481 1476 1467 1466 1468 1473 1481 1492 1501 1502 1485 1456 1456 1457 1458 1460 1462 1464 1467 1470 1473 1477 1480 1483 1487 1491 1495 1499 1504 1507 1511 1515 1518 1522 1525 1528 1530 1533 1535 1537 1539
1460 1473 1480 1484 1478 1470 1469 1468 1471 1477 1490 1494 1488 1473 1459 1457 1456 1457 1459 1461 1463 1465 1468 1472 1475 1479 1482 1486 1490 1494 1499 1503 1506 1510 1513 1516 1520 1523 1526 1528 1531 1533 1534 1536
1460 1471 1470 1468 1464 1464 1464 1463 1465 1469 1471 1477 1470 1467 1457 1454 1454 1455 1457 1459 1461 1464 1467 1470 1473 1477 1481 1485 1489 1493 1497 1501 1505 1508 1511 1515 1518 1520 1523 1525 1528 1530 1531 1533
1462 1468 1469 1468 1461 1461 1461 1458 1458 1460 1461 1463 1461 1459 1451 1450 1452 1454 1456 1458 1460 1463 1465 1468 1472 1475 1479 1483 1487 1491 1494 1498 1502 1506 1509 1512 1515 1518 1520 1522 1524 1526 1528 1529
1466 1469 1474 1475 1464 1461 1466 1455 1453 1453 1451 1454 1457 1451 1448 1450 1451 1452 1454 1456 1458 1461 1464 1467 1470 1473 1477 1481 1485 1489 1493 1497 1500 1503 1507 1510 1512 1515 1517 1519 1521 1523 1524 1525
1465 1469 1475 1476 1471 1476 1457 1444 1444 1445 1445 1444 1444 1444 1445 1447 1450 1452 1454 1455 1457 1460 1463 1466 1469 1473 1477 1480 1484 1488 1492 1495 1498 1502 1505 1507 1510 1513 1515 1516 1518 1519 1521 1522
1461 1466 1474 1478 1476 1466 1453 1445 1444 1446 1446 1441 1442 1443 1445 1448 1451 1455 1456 1456 1458 1460 1463 1467 1470 1473 1476 1480 1484 1488 1492 1495 1498 1501 1504 1506 1509 1511 1513 1515 1516 1517 1518 1519
1461 1463 1470 1474 1473 1471 1453 1443 1441 1444 1448 1440 1440 1441 1444 1446 1452 1457 1458 1458 1460 1462 1465 1468 1471 1474 1478 1482 1485 1488 1492 1495 1499 1501 1504 1506 1509 1510 1512 1514 1515 1516 1517 1518
1466 1467 1469 1471 1470 1459 1446 1442 1443 1453 1446 1439 1438 1440 1443 1445 1448 1454 1456 1460 1462 1465 1467 1470 1473 1476 1480 1483 1486 1489 1493 1497 1500 1502 1504 1506 1509 1511 1512 1514 1515 1516 1517 1518
1466 1467 1468 1469 1469 1462 1445 1443 1445 1443 1440 1439 1439 1441 1442 1445 1449 1453 1457 1461 1464 1467 1471 1473 1475 1479 1483 1486 1489 1491 1495 1499 1501 1504 1506 1508 1510 1512 1513 1515 1516 1517 1518 1518
1463 1462 1461 1461 1458 1448 1444 1443 1441 1440 1439 1440 1440 1442 1443 1447 1451 1456 1460 1464 1467 1469 1474 1478 1480 1483 1487 1491 1493 1495 1499 1502 1504 1506 1508 1510 1512 1514 1515 1516 1517 1518 1519 1519
1457 1456 1457 1455 1449 1445 1443 1440 1439 1438 1438 1439 1441 1443 1445 1448 1453 1458 1463 1467 1471 1474 1478 1482 1485 1488 1492 1496 1498 1500 1503 1506 1507 1509 1511 1513 1514 1516 1517 1518 1519 1519 1520 1520
1455 1454 1453 1451 1447 1443 1441 1439 1438 1437 1437 1439 1443 1446 1448 1451 1456 1460 1465 1470 1475 1480 1483 1487 1490 1493 1497 1500 1503 1505 1507 1509 1510 1512 1513 1515 1517 1518 1518 1519 1520 1520 1520 1520
1453 1452 1451 1449 1445 1444 1442 1440 1439 1438 1439 1441 1444 1449 1453 1455 1459 1464 1470 1475 1480 1485 1488 1492 1496 1499 1502 1505 1507 1509 1511 1512 1513 1514 1516 1517 1518 1519 1520 1520 1520 1520 1520 1520